Location: Milton Keynes
(52.0316°N, 0.7531°W)
Time: 11:44:35
(UTC+00:00)

OTV 5 (USA 277) - Pass Details

Date: 30 January 2019
Orbit: 342 x 346 km, 54.5° (Epoch: 17 February)

Event Time Altitude Azimuth Distance (km) Brightness Sun altitude
Exits shadow 05:21:01 22° 141° (SE) 802 ? -22.3°
Drops below altitude 10° 05:23:19 10° 88° (E) 1,297 ? -22.0°
Sets 05:25:33 0° 72° (ENE) 2,142 ? -21.6°
